Regional Weather Roundup
Issued by NWS

Home | Current Version | Previous Version | Text Only | Print | Product List | Glossary On
Versions: 1 2 3 4 5 6 7 8 9 10 11 12 13 14 15 16 17 18 19 20 21 22 23 24 25 26 27 28 29 30 31 32 33 34 35 36 37 38 39 40 41 42 43 44 45 46 47 48 49 50
000
ASUS43 KLSX 240657
RWRMO

WEATHER SUMMARY FOR MISSOURI
NATIONAL WEATHER SERVICE SPRINGFIELD MO
200 AM CDT FRI MAR 24 2017

NOTE: "FAIR" INDICATES FEW OR NO CLOUDS BELOW 12,000 FEET WITH NO
       SIGNIFICANT WEATHER AND/OR OBSTRUCTIONS TO VISIBILITY.
       CURRENT SKY AND/OR WEATHER CONDITIONS ARE NOT AVAILABLE FOR
       CHILLICOTHE AND FARMINGTON.

MOZ001>031-035>038-043-044-053-054-240800-
...NORTHERN AND WESTERN MISSOURI...

CITY           SKY/WX    TMP DP  RH WIND       PRES   REMARKS
KANSAS CTY INT MOCLDY    68  49  50 S16       29.80R
LEE`S SUMMIT   CLOUDY    69  48  47 S21G31    29.80R
ST JOSEPH      CLOUDY    66  50  56 S8        29.79R
CHILLICOTHE      N/A     65  47  52 S5        29.83R

$$
MOZ066>068-077>081-088>096-101>105-240800-
...SOUTHWEST MISSOURI...

CITY           SKY/WX    TMP DP  RH WIND       PRES   REMARKS
SPRINGFIELD    CLEAR     66  47  50 S17       29.89S
JOPLIN         CLEAR     70  48  45 S20G29    29.83F

$$
MOZ032>034-039>042-045>050-055>058-069>072-240800-
...CENTRAL MISSOURI...

CITY           SKY/WX    TMP DP  RH WIND       PRES   REMARKS
COLUMBIA       NOT AVBL
JEFFERSON CITY PTCLDY    70  51  51 S13       29.89S
ROLLA          PTCLDY    66  51  58 S18G30    29.91S
SEDALIA        CLOUDY    68  50  52 S20       29.85F
WARRENSBURG    PTCLDY    70  45  40 S20G29    29.80F

$$
MOZ051-052-059>065-240800-
...EAST CENTRAL MISSOURI...

CITY           SKY/WX    TMP DP  RH WIND       PRES   REMARKS
ST LOUIS INTL  CLOUDY    58  44  60 SE9       29.95F

$$
MOZ072>076-082>087-097>100-106>115-240800-
...SOUTH CENTRAL AND SOUTHEAST MISSOURI...

CITY           SKY/WX    TMP DP  RH WIND       PRES   REMARKS
CAPE GIRARDEAU CLEAR     62  50  64 S12       30.04F
POPLAR BLUFF   CLEAR     63  53  70 S7        30.03S
WEST PLAINS    CLEAR     64  51  62 S10       30.00F

$$



USA.gov is the U.S. government's official web portal to all federal, state and local government web resources and services.